Wind_Speed
14 14 14 14 15 13 13 13 13 13 14 14 15 15 16 17 18 19 20 21 21 21 22 22 21 22 22 23 23 24 24 25 25 25 26 27 27 27 28 28 29 29 29
12 13 13 13 12 12 12 11 11 13 14 14 15 15 16 17 17 19 19 20 20 20 20 21 21 21 22 22 23 24 24 25 25 26 26 27 28 28 28 29 30 30 31
8 8 9 9 9 10 9 10 10 11 12 14 15 15 17 18 18 19 19 19 20 20 20 21 22 22 22 22 23 24 24 25 26 27 27 27 28 29 29 29 30 31 32
4 5 6 6 7 8 8 8 10 11 13 14 15 17 17 18 19 19 19 20 20 20 21 21 22 22 22 23 23 24 25 25 26 27 27 28 29 30 30 30 30 31 32
2 3 3 4 5 6 7 9 10 12 13 15 16 18 19 19 20 20 20 21 21 21 22 22 22 23 23 24 24 25 25 26 27 27 28 29 30 31 31 32 32 32 33
2 3 4 5 6 7 9 10 11 13 15 16 18 19 20 20 21 21 21 22 22 22 22 23 24 24 24 25 25 26 27 27 28 29 29 30 31 32 33 33 33 34 34
2 3 5 6 8 10 11 12 13 14 16 18 19 19 20 20 21 22 22 23 23 23 23 24 25 25 26 27 27 28 28 29 30 30 31 32 32 33 34 34 35 35 36
4 5 7 9 10 12 13 14 15 16 17 18 19 20 20 20 21 22 23 23 24 25 25 26 26 27 28 28 29 29 30 31 32 33 33 34 34 35 36 36 36 37 37
7 8 9 11 12 14 14 15 16 17 18 19 20 20 21 22 22 23 24 24 25 26 27 28 28 29 29 30 31 32 32 33 33 34 35 36 36 37 37 38 38 38 38
10 11 12 13 14 15 15 16 17 18 19 20 20 20 21 22 23 24 25 26 27 28 29 30 30 31 32 32 33 34 34 35 35 36 36 37 37 38 38 38 39 39 39
13 13 14 15 15 15 15 16 17 19 20 20 21 21 22 22 23 24 26 27 28 29 30 31 32 33 34 34 35 36 36 36 36 37 37 37 37 38 38 38 38 39 39
15 15 15 16 16 16 16 17 18 19 19 20 21 22 22 23 24 26 27 28 29 30 31 33 34 35 36 36 37 37 37 37 37 38 38 38 38 38 38 39 39 39 39
17 18 17 16 16 16 17 17 18 19 20 20 21 22 22 24 25 27 28 29 30 31 33 34 36 37 38 38 38 38 38 38 39 38 38 38 38 38 38 39 39 39 40
18 18 17 17 16 17 17 18 19 20 20 21 22 23 23 25 26 28 29 30 32 33 35 37 39 39 40 40 39 39 39 39 39 38 37 37 37 37 38 38 39 40 40
18 18 17 17 17 17 18 19 20 21 21 22 23 24 25 26 27 29 30 32 33 35 37 39 40 41 41 41 41 40 40 40 39 38 38 37 37 37 37 37 38 39 40
19 18 18 18 18 18 19 20 21 22 23 24 25 26 26 28 29 30 32 34 35 37 39 41 42 43 43 42 42 41 40 39 39 38 38 37 37 37 37 37 37 37 38
19 19 19 19 19 20 21 22 23 24 25 25 27 28 29 30 31 33 34 36 38 39 41 43 44 44 44 43 42 41 40 39 38 37 36 36 36 35 35 35 35 36 37
20 20 20 20 21 21 22 23 24 25 26 27 29 30 31 32 33 35 36 38 39 41 43 45 45 45 45 44 43 41 40 38 37 37 36 36 35 35 33 33 33 34 35
21 21 22 22 22 23 24 25 26 27 28 30 31 33 34 35 36 37 39 40 41 42 45 46 46 45 45 44 43 41 39 38 37 36 36 35 34 33 32 32 32 33 34
22 23 23 24 24 25 26 27 28 29 30 32 34 36 37 38 38 39 40 41 43 44 45 46 46 46 45 44 43 41 39 38 37 36 35 34 32 32 32 32 32 32 33
24 25 25 26 26 27 28 29 30 32 33 35 37 38 40 41 40 41 42 43 44 45 46 47 46 46 45 43 42 40 39 38 36 35 34 33 31 31 31 31 31 32 32
26 27 27 27 28 29 31 32 33 35 36 38 39 41 42 44 43 44 44 45 46 47 47 47 47 46 45 43 41 39 38 37 35 34 33 32 30 30 29 29 29 30 30
29 29 30 30 31 32 33 35 37 38 39 40 42 43 44 45 46 47 47 47 48 49 49 48 47 46 45 42 40 38 37 37 35 34 33 31 30 29 29 29 29 29 29
32 32 33 34 34 35 37 38 39 40 41 43 44 45 46 46 47 48 49 49 51 51 49 49 48 46 44 42 40 38 37 36 35 33 32 30 29 28 28 28 28 27 27
35 36 37 38 39 39 40 42 43 44 44 46 47 47 48 48 49 49 50 52 51 49 49 49 48 46 43 41 39 38 37 36 34 33 31 29 28 27 26 26 26 25 24
38 39 40 41 42 42 43 44 45 46 47 48 49 49 50 51 51 52 52 52 51 50 48 47 47 45 43 40 38 37 36 35 33 32 30 27 26 26 25 25 24 23 23
Wind_Direction
265 267 271 278 283 288 294 292 295 302 304 306 308 308 307 308 309 309 308 306 305 302 299 299 296 294 292 289 286 283 281 280 279 276 275 274 273 270 269 267 264 262 260
256 264 268 275 283 288 289 290 294 299 303 309 311 310 312 313 314 313 312 310 308 306 303 301 300 297 294 291 289 286 284 281 280 278 276 276 275 274 271 268 265 263 261
258 255 262 273 280 289 293 294 305 310 313 316 317 318 319 320 319 318 316 314 313 311 310 308 305 302 298 294 291 288 286 284 282 279 278 276 276 276 274 271 267 265 263
255 252 263 272 285 292 298 306 313 318 321 323 323 324 324 324 323 321 319 318 317 315 313 311 308 305 302 298 294 290 288 286 284 282 280 278 276 275 274 272 270 267 264
262 272 283 294 310 313 315 318 320 324 327 328 329 328 327 325 324 322 321 320 319 318 316 314 311 308 305 301 298 295 292 290 287 285 283 281 279 277 275 273 271 268 265
292 293 310 317 324 326 326 327 328 330 332 331 330 328 327 326 326 324 323 322 321 319 317 314 313 310 308 305 302 299 296 294 291 288 285 283 280 278 276 274 272 270 267
305 306 318 324 328 329 331 333 334 333 333 332 330 329 328 327 326 325 324 323 321 319 318 316 314 312 309 306 303 301 299 296 294 291 288 285 282 279 277 274 271 270 269
319 320 325 329 330 332 334 335 335 333 332 332 330 330 328 327 326 325 324 323 321 320 319 317 316 313 311 308 305 303 300 297 295 292 290 287 284 280 278 275 272 270 268
322 325 329 331 332 333 334 334 333 332 332 331 331 330 329 328 327 326 325 323 321 320 319 318 316 314 312 310 307 304 301 298 295 292 290 287 284 281 278 275 273 270 268
320 324 328 330 330 330 330 330 330 330 329 329 329 329 328 327 326 326 324 322 321 321 320 319 318 316 313 311 308 306 303 299 296 294 291 288 284 281 278 276 273 270 268
319 321 324 324 324 325 326 326 327 328 328 328 327 327 326 326 325 324 323 322 322 322 321 320 319 318 316 313 310 307 305 302 298 295 292 288 285 281 278 275 272 270 267
316 317 319 319 318 320 321 323 324 324 325 325 324 324 324 324 324 324 324 324 323 323 323 323 322 320 318 316 313 310 307 304 300 297 293 289 285 281 278 275 272 270 267
311 311 312 313 313 314 317 319 320 321 322 322 322 321 321 322 323 324 324 324 324 324 325 325 324 323 321 318 316 313 309 306 302 298 294 290 286 282 279 276 273 270 267
303 304 306 307 308 310 313 315 318 319 320 320 321 320 320 322 323 324 324 325 325 325 325 325 324 323 322 320 318 314 311 308 304 300 295 292 288 284 280 277 274 271 267
299 300 301 303 304 307 309 312 315 316 317 318 319 319 319 321 323 324 324 324 325 325 325 325 325 324 323 321 319 316 312 309 305 301 297 293 289 286 282 278 275 271 267
297 298 299 301 302 304 307 310 313 313 314 315 317 318 319 320 320 321 322 323 323 324 325 325 325 325 323 321 320 317 314 310 305 301 298 294 291 288 284 279 275 271 268
295 297 299 300 302 304 306 308 311 312 313 313 315 316 317 318 318 319 321 322 323 323 323 324 324 325 323 322 320 318 315 312 307 304 300 297 293 289 284 280 277 273 269
296 298 299 300 302 303 305 307 310 311 312 312 313 314 315 316 316 317 320 322 323 323 324 324 325 324 324 322 320 318 315 312 309 305 302 298 295 290 286 282 279 276 271
297 298 298 300 302 303 304 306 308 309 310 311 312 312 313 313 314 316 319 321 323 323 324 324 324 324 323 322 320 318 315 313 310 306 303 300 296 292 288 285 282 278 274
297 297 297 298 300 301 303 304 306 308 309 310 312 312 311 311 313 315 317 319 322 324 324 324 324 324 324 322 320 318 316 314 311 308 304 301 296 293 289 287 285 280 275
296 296 296 297 298 300 301 303 304 306 308 310 311 313 312 311 311 313 315 318 320 323 324 324 324 324 323 321 319 317 316 315 312 309 306 302 297 294 291 289 286 282 278
293 294 295 296 297 298 300 302 303 305 307 310 311 312 313 313 312 313 315 317 319 321 322 322 322 322 322 321 320 318 317 316 313 311 308 304 299 296 293 290 288 285 281
292 293 294 295 297 298 299 301 302 302 305 307 309 310 313 314 314 315 315 317 319 319 319 320 321 322 322 321 320 319 318 317 314 312 309 305 301 297 293 291 290 288 283
291 292 293 294 295 297 298 299 300 301 302 304 307 308 310 312 313 315 315 315 317 317 317 319 320 321 321 320 319 318 317 317 315 313 310 307 304 299 296 292 291 290 285
288 290 291 292 293 294 296 298 299 300 300 303 305 307 309 309 311 313 314 314 315 315 316 317 318 319 319 318 318 318 318 317 316 314 311 307 305 302 299 296 295 293 288
287 289 290 291 292 293 294 296 297 299 300 302 304 305 307 308 309 310 312 313 314 314 315 315 316 317 317 316 316 316 317 316 316 315 313 309 306 303 300 299 298 296 291
Height
5862 5863 5865 5866 5866 5867 5867 5867 5866 5865 5864 5863 5862 5860 5859 5858 5856 5855 5853 5851 5850 5848 5846 5845 5844 5842 5841 5840 5839 5839 5839 5838 5838 5839 5839 5839 5839 5840 5841 5841 5843 5844 5845
5859 5861 5863 5864 5864 5865 5864 5864 5863 5862 5862 5860 5859 5857 5856 5855 5853 5851 5850 5848 5846 5844 5842 5840 5839 5838 5836 5835 5834 5834 5833 5833 5832 5833 5833 5832 5833 5833 5833 5834 5835 5836 5838
5857 5859 5861 5862 5863 5862 5862 5862 5861 5860 5859 5857 5856 5855 5853 5851 5850 5848 5846 5844 5842 5840 5838 5836 5834 5833 5831 5830 5829 5828 5828 5827 5826 5826 5826 5826 5826 5825 5826 5827 5827 5828 5830
5857 5859 5860 5861 5861 5860 5860 5860 5859 5858 5856 5855 5853 5852 5850 5848 5846 5844 5842 5841 5838 5836 5834 5832 5830 5828 5826 5825 5824 5823 5822 5821 5820 5819 5818 5818 5818 5818 5818 5819 5819 5820 5822
5857 5858 5859 5859 5859 5859 5858 5858 5857 5855 5854 5852 5850 5849 5847 5845 5843 5841 5839 5837 5835 5833 5830 5828 5826 5824 5822 5820 5818 5817 5815 5814 5813 5812 5811 5811 5810 5810 5810 5810 5811 5812 5813
5857 5858 5858 5858 5857 5857 5856 5856 5854 5853 5851 5849 5848 5846 5844 5842 5840 5837 5835 5833 5831 5829 5827 5824 5822 5819 5817 5815 5813 5811 5809 5807 5806 5804 5803 5803 5802 5802 5801 5802 5802 5803 5804
5857 5857 5857 5856 5856 5855 5854 5853 5852 5850 5848 5847 5845 5843 5841 5839 5837 5834 5832 5829 5827 5825 5823 5820 5817 5815 5812 5809 5807 5805 5802 5800 5798 5796 5795 5794 5793 5793 5792 5793 5793 5793 5794
5856 5856 5855 5854 5854 5852 5851 5850 5849 5847 5846 5844 5842 5840 5838 5836 5834 5831 5829 5826 5823 5821 5818 5815 5812 5809 5806 5804 5801 5798 5795 5793 5790 5788 5786 5785 5784 5783 5782 5782 5783 5783 5784
5854 5854 5853 5852 5851 5850 5848 5847 5846 5844 5843 5841 5839 5837 5835 5832 5830 5828 5825 5822 5819 5816 5813 5810 5807 5804 5800 5797 5794 5791 5788 5785 5782 5780 5778 5776 5774 5773 5772 5772 5772 5773 5773
5852 5851 5850 5849 5848 5847 5846 5845 5844 5842 5840 5838 5836 5834 5832 5830 5827 5824 5821 5818 5815 5811 5808 5804 5801 5797 5794 5790 5786 5783 5779 5776 5773 5770 5768 5766 5764 5762 5761 5761 5760 5761 5762
5850 5849 5848 5847 5846 5845 5844 5843 5841 5839 5837 5835 5833 5831 5829 5827 5824 5821 5818 5814 5810 5806 5803 5799 5795 5791 5786 5782 5778 5774 5770 5767 5763 5760 5757 5755 5752 5751 5750 5749 5749 5749 5750
5848 5847 5846 5845 5844 5843 5841 5840 5838 5837 5835 5833 5831 5828 5826 5823 5820 5817 5813 5809 5805 5801 5797 5792 5788 5783 5779 5774 5769 5765 5760 5756 5753 5749 5746 5744 5741 5740 5738 5737 5737 5738 5738
5846 5845 5844 5843 5841 5840 5839 5837 5836 5834 5832 5830 5827 5825 5822 5819 5816 5812 5808 5804 5800 5795 5791 5786 5781 5776 5771 5765 5760 5755 5750 5746 5742 5738 5735 5732 5730 5728 5727 5725 5725 5725 5726
5844 5843 5841 5840 5839 5837 5836 5834 5832 5830 5828 5826 5823 5821 5818 5814 5811 5807 5803 5799 5794 5789 5784 5779 5773 5768 5762 5756 5751 5745 5740 5735 5731 5727 5724 5721 5718 5716 5715 5714 5713 5713 5714
5841 5840 5838 5837 5836 5834 5832 5831 5829 5826 5824 5822 5819 5816 5813 5809 5805 5801 5797 5793 5788 5782 5777 5771 5765 5759 5753 5747 5741 5736 5730 5725 5720 5716 5712 5709 5707 5705 5703 5702 5701 5701 5701
5837 5836 5835 5833 5832 5830 5828 5827 5824 5822 5820 5817 5814 5811 5807 5804 5800 5796 5791 5786 5781 5775 5770 5764 5757 5750 5744 5738 5732 5726 5720 5715 5710 5705 5701 5698 5695 5693 5691 5690 5689 5688 5689
5833 5832 5830 5829 5828 5826 5824 5822 5820 5817 5815 5812 5808 5805 5801 5797 5793 5789 5784 5779 5774 5768 5762 5755 5749 5742 5735 5728 5722 5715 5710 5704 5699 5695 5691 5687 5684 5681 5679 5678 5677 5676 5676
5828 5827 5826 5824 5823 5821 5819 5817 5814 5812 5809 5806 5802 5799 5795 5791 5786 5782 5777 5771 5766 5760 5753 5747 5740 5733 5726 5719 5712 5706 5700 5695 5689 5685 5680 5676 5673 5670 5668 5667 5666 5665 5664
5824 5822 5820 5819 5818 5816 5813 5811 5808 5806 5803 5799 5796 5792 5788 5784 5779 5774 5769 5763 5757 5751 5744 5738 5730 5723 5716 5709 5702 5696 5690 5685 5680 5675 5670 5666 5663 5660 5657 5656 5654 5653 5652
5818 5817 5815 5813 5811 5809 5807 5804 5802 5799 5796 5792 5789 5784 5780 5775 5771 5766 5760 5754 5748 5742 5735 5728 5721 5714 5707 5699 5693 5686 5681 5676 5670 5665 5660 5656 5653 5650 5647 5645 5643 5642 5641
5812 5810 5809 5807 5805 5802 5800 5797 5794 5791 5788 5784 5780 5776 5771 5766 5762 5757 5751 5745 5739 5733 5726 5719 5712 5705 5698 5691 5684 5678 5672 5666 5661 5655 5651 5646 5643 5640 5637 5634 5632 5630 5629
5805 5804 5802 5800 5798 5795 5792 5790 5786 5783 5779 5775 5771 5767 5762 5757 5752 5747 5741 5736 5730 5724 5717 5710 5703 5696 5689 5682 5675 5669 5663 5657 5651 5646 5641 5637 5634 5630 5627 5625 5622 5620 5618
5797 5796 5794 5792 5789 5787 5784 5781 5778 5774 5770 5766 5762 5757 5752 5747 5742 5736 5731 5726 5720 5714 5707 5700 5694 5687 5679 5673 5666 5660 5654 5648 5643 5638 5633 5628 5624 5621 5618 5615 5612 5610 5608
5788 5787 5785 5783 5780 5778 5775 5771 5768 5764 5760 5756 5752 5747 5742 5737 5732 5727 5721 5715 5710 5703 5696 5690 5683 5677 5670 5664 5657 5651 5646 5640 5635 5629 5624 5620 5616 5612 5609 5606 5604 5601 5598
5779 5777 5775 5773 5770 5768 5765 5761 5758 5754 5750 5746 5741 5736 5732 5727 5722 5717 5711 5705 5700 5693 5686 5680 5673 5667 5662 5655 5649 5642 5637 5631 5626 5621 5616 5612 5608 5605 5601 5598 5595 5592 5590
5770 5768 5765 5762 5759 5757 5754 5751 5747 5743 5739 5734 5730 5725 5720 5715 5710 5705 5700 5694 5688 5683 5676 5670 5664 5658 5652 5646 5640 5635 5629 5624 5618 5613 5609 5605 5601 5597 5594 5591 5588 5585 5582